Weather History for Mountain Home, ID

Change the Weather History Date:

Friday, February 15, 2013

  Actual Average Record
Temperature  
Mean Temperature 38 °F 35 °F  
Max Temperature 51 °F 45 °F 62 °F (1934)
Min Temperature 25 °F 24 °F -2 °F (1935)
Degree Days  
Heating Degree Days 27 30  
Month to date heating degree days 446 473  
Cooling Degree Days 0 0  
Month to date cooling degree days 0 0  
Moisture  
Dew Point 26 °F    
Average Humidity 66    
Maximum Humidity 85    
Minimum Humidity 42    
Precipitation  
Precipitation 0.00 in 0.03 in 0.78 in (1949)
Month to date precipitation T 0.43  
Sea Level Pressure  
Sea Level Pressure 30.50 in    
Wind  
Wind Speed 9 mph (NW)    
Max Wind Speed 13 mph    
Max Gust Speed -    
Visibility 10 miles    
Events      
T = Trace of Precipitation, MM = Missing Value Source: NWS Daily Summary

Daily Weather History Graph

Daily Weather History Graph

Search for Another Location

Airport:

Trip Planner

Search our weather history database for the weather conditions in past years. The results will help you decide how hot, cold, wet, or windy it might be!

Date:

Astronomy

Feb. 15, 2013 Rise Set
Actual Time 7:40 AM MST 6:15 PM MST
Civil Twilight 7:11 AM MST 6:44 PM MST
Nautical Twilight 6:38 AM MST 7:17 PM MST
Astronomical Twilight 6:05 AM MST 7:50 PM MST
Moon 10:09 AM MST (2/15) No Moon Set
Length of Visible Light 11h 32m
Length of Day
10h 34m
Waxing Crescent, 31% of the Moon is Illuminated
Feb 15
Waxing Crescent
Feb 17
First Quarter
Feb 25
Full
Mar 4
Last Quarter
Mar 11
New

Hourly Weather History & Observations

Time (MST) Temp. Windchill Dew Point Humidity Pressure Visibility Wind Dir Wind Speed Gust Speed Precip Events Conditions
12:18 AM 33.8 °F 25.3 °F 24.8 °F 70% 30.46 in 10.0 mi West 11.5 mph - N/A   Mostly Cloudy
12:33 AM 35.6 °F 27.1 °F 26.6 °F 70% 30.46 in 10.0 mi West 12.7 mph - N/A   Overcast
12:58 AM 36.7 °F 28.9 °F 26.1 °F 65% 30.50 in 10.0 mi West 11.5 mph - N/A   Overcast
1:13 AM 35.6 °F 27.5 °F 24.8 °F 65% 30.46 in 10.0 mi WNW 11.5 mph - N/A   Scattered Clouds
1:58 AM 31.8 °F 26.2 °F 24.3 °F 74% 30.51 in 10.0 mi WNW 5.8 mph - N/A   Clear
2:58 AM 30.9 °F 22.8 °F 23.7 °F 75% 30.52 in 10.0 mi WNW 9.2 mph - N/A   Clear
3:58 AM 30.0 °F 23.2 °F 23.7 °F 77% 30.52 in 10.0 mi NNW 6.9 mph - N/A   Clear
4:58 AM 30.2 °F 21.3 °F 24.8 °F 80% 30.51 in 10.0 mi NNW 10.4 mph - N/A   Clear
5:58 AM 28.0 °F 20.8 °F 23.0 °F 81% 30.52 in 10.0 mi NW 6.9 mph - N/A   Clear
6:58 AM 27.7 °F 19.6 °F 23.7 °F 85% 30.54 in 10.0 mi West 8.1 mph - N/A   Clear
7:58 AM 27.3 °F 18.4 °F 22.8 °F 83% 30.56 in 10.0 mi West 9.2 mph - N/A   Clear
8:58 AM 34.0 °F 28.0 °F 28.0 °F 79% 30.56 in 10.0 mi WSW 6.9 mph - N/A   Clear
9:58 AM 38.7 °F 34.3 °F 28.0 °F 66% 30.57 in 10.0 mi West 5.8 mph - N/A   Clear
10:58 AM 40.8 °F 36.9 °F 27.3 °F 59% 30.57 in 10.0 mi North 5.8 mph - N/A   Clear
11:58 AM 44.2 °F 41.8 °F 27.5 °F 52% 30.56 in 10.0 mi NNE 4.6 mph - N/A   Clear
12:58 PM 46.2 °F 45.0 °F 28.0 °F 49% 30.53 in 10.0 mi North 3.5 mph - N/A   Clear
1:58 PM 48.0 °F - 28.6 °F 47% 30.51 in 10.0 mi Variable 2.3 mph - N/A   Clear
2:58 PM 49.8 °F - 28.8 °F 44% 30.48 in 10.0 mi NW 3.5 mph - N/A   Clear
3:58 PM 50.5 °F - 28.4 °F 42% 30.46 in 10.0 mi NNW 3.5 mph - N/A   Clear
4:58 PM 50.5 °F - 28.2 °F 42% 30.46 in 10.0 mi NW 2.3 mph - N/A   Clear
5:58 PM 48.7 °F - 28.2 °F 45% 30.45 in 10.0 mi East 5.8 mph - N/A   Clear
6:58 PM 39.2 °F 35.0 °F 27.7 °F 63% 30.47 in 10.0 mi ESE 5.8 mph - N/A   Clear
7:58 PM 36.9 °F 30.7 °F 26.8 °F 67% 30.46 in 10.0 mi ESE 8.1 mph - N/A   Clear
8:58 PM 32.7 °F 25.7 °F 26.1 °F 76% 30.46 in 10.0 mi East 8.1 mph - N/A   Clear
9:58 PM 32.2 °F 24.4 °F 25.3 °F 76% 30.44 in 10.0 mi East 9.2 mph - N/A   Clear
10:58 PM 31.1 °F 22.4 °F 25.3 °F 79% 30.43 in 10.0 mi ESE 10.4 mph - N/A   Clear
11:58 PM 31.1 °F 23.7 °F 25.3 °F 79% 30.41 in 10.0 mi ESE 8.1 mph - N/A   Clear